Regional Weather Roundup
Issued by NWS Sioux Falls, SD

Home | Current Version | Previous Version | Graphics & Text | Print | Product List | Glossary Off
Versions: 1 2 3 4 5 6 7 8 9 10 11 12 13 14 15 16 17 18 19 20 21 22 23 24 25 26 27 28 29 30 31 32 33 34 35 36 37 38 39 40 41 42 43 44 45 46 47 48 49 50

000
ASUS43 KFSD 241610
RWRFSD

WEATHER ROUNDUP FOR SE SOUTH DAKOTA/SW MINNESOTA/NW IOWA
NATIONAL WEATHER SERVICE SIOUX FALLS SD
1100 AM CDT WED AUG 24 2016

NOTE: "FAIR" INDICATES FEW OR NO CLOUDS BELOW 12,000 FEET WITH NO
SIGNIFICANT WEATHER AND OR OBSTRUCTIONS TO VISIBILITY.


SDZ038>040-050-052>070-241700-
SOUTHEAST SOUTH DAKOTA

CITY           SKY/WX    TMP DP  RH WIND       PRES   REMARKS
BROOKINGS      MOSUNNY   70  55  59 NW10      30.01R
CHAMBERLAIN    CLOUDY    71  52  50 N12G17    30.09R
HURON          PTSUNNY   72  53  51 NW14      30.03R
MADISON        FAIR      68  55  64 N10       30.03R
MITCHELL       CLOUDY    69  55  60 N8        30.06R
SIOUX FALLS    CLOUDY    71  58  63 NW7       30.03R
WINNER         FAIR      67  49  52 NW12      30.14R
YANKTON        CLOUDY    68  52  56 NW13      30.04R
$$

MNZ071-072-080-081-089-090-097-098-241700-
SOUTHWEST MINNESOTA

CITY           SKY/WX    TMP DP  RH WIND       PRES   REMARKS
FAIRMONT       CLOUDY    70  66  87 NW10      29.96
JACKSON        CLOUDY    73  57  56 N6        29.98R
LUVERNE        CLOUDY    68  57  68 W6        30.02R
MARSHALL       MOSUNNY   72  55  55 N8        29.98R
MONTEVIDEO     SUNNY     73  61  64 N7        29.98R
REDWOOD FALLS  CLOUDY    74  60  61 NW8       29.94R
TRACY          PTSUNNY   72  59  63 NW10      29.99R
WINDOM         PTSUNNY   73  61  64 NW10      29.97R
$$

IAZ001>003-012>014-020>022-031-032-NEZ013-014-SDZ071-241700-
NORTHWEST IOWA

CITY           SKY/WX    TMP DP  RH WIND       PRES   REMARKS
CHEROKEE       PTSUNNY   75  60  60 NW5       30.00R
DENISON        MOSUNNY   77  66  69 N10       29.97R
ESTHERVILLE    CLOUDY    73  65  75 N10       29.96R
LE MARS        CLOUDY    73  57  56 N6        30.02R
ORANGE CITY    MOSUNNY   73  59  60 NW6       30.02R
SHELDON        CLOUDY    73  61  64 NW7       30.00R
SIOUX CITY     CLOUDY    72  59  63 NW6       30.01R
SPENCER        CLOUDY    76  59  55 N10       29.99R
STORM LAKE     MOSUNNY   75  61  60 N8G17     29.99R
$$

ABBREVIATIONS USED IN REMARKS
   TC - TEMPERATURE IN CELSIUS
  WCI - WIND CHILL INDEX
   HX - HEAT INDEX
  VSB - VISIBILITY





USA.gov is the U.S. government's official web portal to all federal, state and local government web resources and services.